Shanghai Hongqiao, Shanghai

9:36 PM CST on September 27, 2016 (GMT +0800)
Hongqiao

Weather History for ZSSS - December, 2013

Change the Weather History Date:

Tuesday, December 17, 2013

  Actual Average Record
Temperature  
Mean Temperature 44 °F -  
Max Temperature 46 °F 50 °F 62 °F (1998)
Min Temperature 42 °F 37 °F 28 °F (2005)
Degree Days  
Heating Degree Days 21    
Moisture  
Dew Point 40 °F    
Average Humidity 87    
Maximum Humidity 93    
Minimum Humidity 81    
Precipitation  
Precipitation 0.00 in - - ()
Sea Level Pressure  
Sea Level Pressure 30.20 in    
Wind  
Wind Speed 11 mph ()    
Max Wind Speed 16 mph    
Max Gust Speed -    
Visibility 6.1 miles    
Events Rain    
Averages and records for this station are not official NWS values.
T = Trace of Precipitation, MM = Missing Value Source: Averaged Metar Reports

Daily Weather History Graph

Daily Weather History Graph

Search for Another Location

Airport or City:

Trip Planner

Search our weather history database for the weather conditions in past years. The results will help you decide how hot, cold, wet, or windy it might be!

Date:

Astronomy

Dec. 17, 2013 Rise Set
Actual Time 6:46 AM CST 4:54 PM CST
Civil Twilight 6:20 AM CST 5:21 PM CST
Nautical Twilight 5:49 AM CST 5:51 PM CST
Astronomical Twilight 5:20 AM CST 6:21 PM CST
Moon 5:01 PM CST (12/17) 6:18 AM CST (12/17)
Length of Visible Light 11h 01m
Length of Day
10h 07m
Full, 100% of the Moon is Illuminated
Dec 17
Full
Dec 17
Full
Dec 25
Last Quarter
Jan 1
New
Jan 8
First Quarter

Hourly Weather History & Observations

Time (CST) Temp. Windchill Dew Point Humidity Pressure Visibility Wind Dir Wind Speed Gust Speed Precip Events Conditions
12:00 AM 42.8 °F 36.7 °F 41.0 °F 93% 30.27 in 6.2 mi NNE 11.2 mph - N/A Rain Light Rain
12:30 AM 42.8 °F 35.9 °F 39.2 °F 87% 30.27 in 6.2 mi NNE 13.4 mph - N/A Rain Light Rain
1:00 AM 42.8 °F 35.9 °F 39.2 °F 87% 30.27 in 6.2 mi NNE 13.4 mph - N/A Rain Light Rain
1:30 AM 42.8 °F 35.9 °F 39.2 °F 87% 30.24 in 6.2 mi NNE 13.4 mph - N/A Rain Light Rain
2:00 AM 42.8 °F 36.7 °F 39.2 °F 87% 30.24 in 6.2 mi NNE 11.2 mph - N/A Rain Light Rain
2:30 AM 42.8 °F 36.7 °F 39.2 °F 87% 30.24 in 6.2 mi NNE 11.2 mph - N/A Rain Light Rain
3:00 AM 42.8 °F 35.9 °F 39.2 °F 87% 30.24 in 6.2 mi NNE 13.4 mph - N/A Rain Light Rain
3:30 AM 42.8 °F 35.9 °F 39.2 °F 87% 30.21 in 6.2 mi NNE 13.4 mph - N/A Rain Light Rain
4:00 AM 42.8 °F 35.9 °F 39.2 °F 87% 30.21 in 6.2 mi NNE 13.4 mph - N/A Rain Light Rain
4:30 AM 42.8 °F 37.6 °F 39.2 °F 87% 30.21 in 6.2 mi North 8.9 mph - N/A Rain Light Rain
5:00 AM 42.8 °F 37.6 °F 39.2 °F 87% 30.24 in 6.2 mi North 8.9 mph - N/A Rain Light Rain
5:30 AM 42.8 °F 37.6 °F 41.0 °F 93% 30.24 in 6.2 mi North 8.9 mph - N/A Rain Light Rain
6:00 AM 42.8 °F 37.6 °F 41.0 °F 93% 30.21 in 6.2 mi North 8.9 mph - N/A Rain Light Rain
6:30 AM 42.8 °F 36.7 °F 41.0 °F 93% 30.21 in 6.2 mi North 11.2 mph - N/A Rain Light Rain
7:00 AM 42.8 °F 36.7 °F 41.0 °F 93% 30.24 in 4.3 mi North 11.2 mph - N/A Rain Light Rain
7:30 AM 42.8 °F 36.7 °F 41.0 °F 93% 30.21 in 4.3 mi North 11.2 mph - N/A Rain Light Rain
8:00 AM 44.6 °F 38.2 °F 41.0 °F 87% 30.21 in 6.2 mi NNE 13.4 mph - N/A Rain Light Rain
8:30 AM 44.6 °F 38.2 °F 41.0 °F 87% 30.24 in 6.2 mi NNE 13.4 mph - N/A Rain Light Rain
9:00 AM 44.6 °F 38.9 °F 41.0 °F 87% 30.24 in 6.2 mi NNE 11.2 mph - N/A Rain Light Rain
9:30 AM 44.6 °F 38.9 °F 41.0 °F 87% 30.24 in 6.2 mi North 11.2 mph - N/A Rain Light Rain
10:00 AM 44.6 °F 38.2 °F 41.0 °F 87% 30.21 in 6.2 mi NNE 13.4 mph - N/A Rain Light Rain
10:30 AM 46.4 °F 41.2 °F 42.8 °F 87% 30.21 in 6.2 mi North 11.2 mph - N/A Rain Light Rain
11:00 AM 46.4 °F 41.2 °F 41.0 °F 81% 30.21 in 6.2 mi North 11.2 mph - N/A Rain Light Rain
11:30 AM 46.4 °F 40.5 °F 41.0 °F 81% 30.18 in 6.2 mi NNE 13.4 mph - N/A Rain Light Rain
12:00 PM 46.4 °F 40.5 °F 41.0 °F 81% 30.18 in 6.2 mi North 13.4 mph - N/A Rain Light Rain
12:30 PM 46.4 °F 41.2 °F 41.0 °F 81% 30.15 in 6.2 mi North 11.2 mph - N/A Rain Light Rain
1:00 PM 46.4 °F 40.5 °F 41.0 °F 81% 30.12 in 6.2 mi NNE 13.4 mph - N/A Rain Light Rain
1:30 PM 46.4 °F 39.9 °F 41.0 °F 81% 30.12 in 6.2 mi NNE 15.7 mph - N/A Rain Light Rain
2:00 PM 46.4 °F 40.5 °F 41.0 °F 81% 30.12 in 6.2 mi NNE 13.4 mph - N/A Rain Light Rain
2:30 PM 44.6 °F 38.9 °F 41.0 °F 87% 30.12 in 6.2 mi NNE 11.2 mph - N/A Rain Light Rain
3:00 PM 44.6 °F 38.2 °F 41.0 °F 87% 30.12 in 6.2 mi NNE 13.4 mph - N/A Rain Light Rain
3:30 PM 44.6 °F 37.6 °F 41.0 °F 87% 30.15 in 6.2 mi NNE 15.7 mph - N/A Rain Light Rain
4:00 PM 44.6 °F 38.2 °F 39.2 °F 81% 30.15 in 6.2 mi NNE 13.4 mph - N/A Rain Light Rain
4:30 PM 44.6 °F 38.2 °F 41.0 °F 87% 30.15 in 6.2 mi NNE 13.4 mph - N/A Rain Light Rain
5:00 PM 44.6 °F 38.2 °F 39.2 °F 81% 30.18 in 6.2 mi NNE 13.4 mph - N/A Rain Light Rain
5:30 PM 42.8 °F 35.9 °F 39.2 °F 87% 30.18 in 6.2 mi NNE 13.4 mph - N/A Rain Light Rain
6:00 PM 42.8 °F 35.9 °F 39.2 °F 87% 30.15 in 6.2 mi NNE 13.4 mph - N/A Rain Light Rain
6:30 PM 44.6 °F 37.6 °F 39.2 °F 81% 30.18 in 6.2 mi North 15.7 mph - N/A Rain Light Rain
7:00 PM 42.8 °F 36.7 °F 39.2 °F 87% 30.18 in 6.2 mi North 11.2 mph - N/A Rain Light Rain
7:30 PM 42.8 °F 37.6 °F 41.0 °F 93% 30.18 in 6.2 mi North 8.9 mph - N/A Rain Light Rain
8:00 PM 42.8 °F 37.6 °F 41.0 °F 93% 30.18 in 6.2 mi NNW 8.9 mph - N/A Rain Light Rain
8:30 PM 42.8 °F 36.7 °F 41.0 °F 93% 30.21 in 6.2 mi North 11.2 mph - N/A Rain Light Rain
9:00 PM 42.8 °F 35.9 °F 39.2 °F 87% 30.21 in 6.2 mi NNE 13.4 mph - N/A Rain Light Rain
9:30 PM 42.8 °F 35.9 °F 39.2 °F 87% 30.21 in 6.2 mi NNE 13.4 mph - N/A Rain Light Rain
10:00 PM 42.8 °F 35.9 °F 39.2 °F 87% 30.21 in 6.2 mi North 13.4 mph - N/A Rain Light Rain
10:30 PM 42.8 °F 36.7 °F 39.2 °F 87% 30.21 in 6.2 mi North 11.2 mph - N/A Rain Light Rain
11:00 PM 42.8 °F 36.7 °F 39.2 °F 87% 30.21 in 6.2 mi North 11.2 mph - N/A Rain Light Rain
11:30 PM 42.8 °F 36.7 °F 39.2 °F 87% 30.18 in 6.2 mi North 11.2 mph - N/A Rain Light Rain